Time,TemperatureF,DewpointF,PressureIn,WindDirection,WindDirectionDegrees,WindSpeedMPH,WindSpeedGustMPH,Humidity,HourlyPrecipIn,Conditions,Clouds,dailyrainin,SolarRadiationWatts/m^2,SoftwareType,DateUTC
2013-01-23 00:12:00,27.0,2.0,-100.00,WNW,287,3.0,5.0,34,0.00,,,0.00,0.000000,,2013-01-23 07:12:00,
2013-01-23 00:22:00,27.0,2.0,-100.00,WNW,287,3.0,5.0,34,0.00,,,0.00,0.000000,,2013-01-23 07:22:00,
2013-01-23 00:33:00,27.0,2.0,-100.00,WNW,287,3.0,5.0,34,0.00,,,0.00,0.000000,,2013-01-23 07:33:00,
2013-01-23 00:42:00,27.0,2.0,-100.00,WNW,287,3.0,5.0,34,0.00,,,0.00,0.000000,,2013-01-23 07:42:00,
2013-01-23 01:12:00,28.0,2.0,-100.00,WSW,246,3.0,4.0,32,0.00,,,0.00,0.000000,,2013-01-23 08:12:00,
2013-01-23 01:22:00,28.0,2.0,-100.00,WSW,246,3.0,4.0,32,0.00,,,0.00,0.000000,,2013-01-23 08:22:00,
2013-01-23 01:32:00,28.0,2.0,-100.00,WSW,246,3.0,4.0,32,0.00,,,0.00,0.000000,,2013-01-23 08:32:00,
2013-01-23 01:42:00,28.0,2.0,-100.00,WSW,246,3.0,4.0,32,0.00,,,0.00,0.000000,,2013-01-23 08:42:00,
2013-01-23 02:12:00,29.0,3.0,-100.00,WSW,238,0.0,8.0,32,0.00,,,0.00,0.000000,,2013-01-23 09:12:00,
2013-01-23 02:22:00,29.0,3.0,-100.00,WSW,238,0.0,8.0,32,0.00,,,0.00,0.000000,,2013-01-23 09:22:00,
2013-01-23 02:32:00,29.0,3.0,-100.00,WSW,238,0.0,8.0,32,0.00,,,0.00,0.000000,,2013-01-23 09:32:00,
2013-01-23 02:43:00,29.0,3.0,-100.00,WSW,238,0.0,8.0,32,0.00,,,0.00,0.000000,,2013-01-23 09:43:00,
2013-01-23 03:12:00,25.0,2.0,-100.00,NNE,24,0.0,6.0,36,0.00,,,0.00,0.000000,,2013-01-23 10:12:00,
2013-01-23 03:22:00,25.0,2.0,-100.00,NNE,24,0.0,6.0,36,0.00,,,0.00,0.000000,,2013-01-23 10:22:00,
2013-01-23 03:32:00,25.0,2.0,-100.00,NNE,24,0.0,6.0,36,0.00,,,0.00,0.000000,,2013-01-23 10:32:00,
2013-01-23 03:42:00,25.0,2.0,-100.00,NNE,24,0.0,6.0,36,0.00,,,0.00,0.000000,,2013-01-23 10:42:00,
2013-01-23 04:12:00,25.0,2.0,-100.00,SW,229,1.0,3.0,36,0.00,,,0.00,0.000000,,2013-01-23 11:12:00,
2013-01-23 04:22:00,25.0,2.0,-100.00,SW,229,1.0,3.0,36,0.00,,,0.00,0.000000,,2013-01-23 11:22:00,
2013-01-23 04:33:00,25.0,2.0,-100.00,SW,229,1.0,3.0,36,0.00,,,0.00,0.000000,,2013-01-23 11:33:00,
2013-01-23 04:42:00,25.0,2.0,-100.00,SW,229,1.0,3.0,36,0.00,,,0.00,0.000000,,2013-01-23 11:42:00,
2013-01-23 05:12:00,26.0,2.0,-100.00,South,171,2.0,7.0,35,0.00,,,0.00,0.000000,,2013-01-23 12:12:00,
2013-01-23 05:22:00,26.0,2.0,-100.00,South,171,2.0,7.0,35,0.00,,,0.00,0.000000,,2013-01-23 12:22:00,
2013-01-23 05:33:00,26.0,2.0,-100.00,South,171,2.0,7.0,35,0.00,,,0.00,0.000000,,2013-01-23 12:33:00,
2013-01-23 05:42:00,26.0,2.0,-100.00,South,171,2.0,7.0,35,0.00,,,0.00,0.000000,,2013-01-23 12:42:00,
2013-01-23 06:12:00,26.0,1.0,-100.00,ENE,75,0.0,7.0,33,0.00,,,0.00,0.000000,,2013-01-23 13:12:00,
2013-01-23 06:23:00,26.0,1.0,-100.00,ENE,75,0.0,7.0,33,0.00,,,0.00,0.000000,,2013-01-23 13:23:00,
2013-01-23 06:33:00,26.0,1.0,-100.00,ENE,75,0.0,7.0,33,0.00,,,0.00,0.000000,,2013-01-23 13:33:00,
2013-01-23 06:42:00,26.0,1.0,-100.00,ENE,75,0.0,7.0,33,0.00,,,0.00,0.000000,,2013-01-23 13:42:00,
2013-01-23 08:12:00,29.0,2.0,-100.00,West,264,3.0,4.0,31,-99.99,,,0.00,8.000000,,2013-01-23 15:12:00,
2013-01-23 08:22:00,29.0,2.0,-100.00,West,264,3.0,4.0,31,-99.99,,,0.00,8.000000,,2013-01-23 15:22:00,
2013-01-23 08:33:00,29.0,2.0,-100.00,West,264,3.0,4.0,31,-99.99,,,0.00,8.000000,,2013-01-23 15:33:00,
2013-01-23 08:43:00,29.0,2.0,-100.00,West,264,3.0,4.0,31,-99.99,,,0.00,8.000000,,2013-01-23 15:43:00,
2013-01-23 09:03:00,30.0,5.0,-100.00,SE,134,4.0,5.0,34,0.00,,,0.00,87.000000,,2013-01-23 16:03:00,
2013-01-23 09:12:00,30.0,5.0,-100.00,SE,134,4.0,5.0,34,0.00,,,0.00,87.000000,,2013-01-23 16:12:00,
2013-01-23 09:22:00,30.0,5.0,-100.00,SE,134,4.0,5.0,34,0.00,,,0.00,87.000000,,2013-01-23 16:22:00,
2013-01-23 09:32:00,30.0,5.0,-100.00,SE,134,4.0,5.0,34,0.00,,,0.00,87.000000,,2013-01-23 16:32:00,
2013-01-23 09:42:00,30.0,5.0,-100.00,SE,134,4.0,5.0,34,0.00,,,0.00,87.000000,,2013-01-23 16:42:00,
2013-01-23 10:12:00,38.0,7.0,-100.00,North,4,2.0,6.0,27,0.00,,,0.00,262.000000,,2013-01-23 17:12:00,
2013-01-23 10:22:00,38.0,7.0,-100.00,North,4,2.0,6.0,27,0.00,,,0.00,262.000000,,2013-01-23 17:22:00,
2013-01-23 10:33:00,38.0,7.0,-100.00,North,4,2.0,6.0,27,0.00,,,0.00,262.000000,,2013-01-23 17:33:00,
2013-01-23 10:42:00,38.0,7.0,-100.00,North,4,2.0,6.0,27,0.00,,,0.00,262.000000,,2013-01-23 17:42:00,
2013-01-23 11:12:00,40.0,10.0,-100.00,North,5,4.0,6.0,29,0.00,,,0.00,434.000000,,2013-01-23 18:12:00,
2013-01-23 11:23:00,40.0,10.0,-100.00,North,5,4.0,6.0,29,0.00,,,0.00,434.000000,,2013-01-23 18:23:00,
2013-01-23 11:33:00,40.0,10.0,-100.00,North,5,4.0,6.0,29,0.00,,,0.00,434.000000,,2013-01-23 18:33:00,
2013-01-23 11:43:00,40.0,10.0,-100.00,North,5,4.0,6.0,29,0.00,,,0.00,434.000000,,2013-01-23 18:43:00,
2013-01-23 12:12:00,42.0,9.0,-100.00,NNW,341,3.0,7.0,25,0.00,,,0.00,517.000000,,2013-01-23 19:12:00,
2013-01-23 12:22:00,42.0,9.0,-100.00,NNW,341,3.0,7.0,25,0.00,,,0.00,517.000000,,2013-01-23 19:22:00,
2013-01-23 12:33:00,42.0,9.0,-100.00,NNW,341,3.0,7.0,25,0.00,,,0.00,517.000000,,2013-01-23 19:33:00,
2013-01-23 12:42:00,42.0,9.0,-100.00,NNW,341,3.0,7.0,25,0.00,,,0.00,517.000000,,2013-01-23 19:42:00,
2013-01-23 13:12:00,43.0,11.0,-100.00,North,352,2.0,5.0,27,0.00,,,0.00,487.000000,,2013-01-23 20:12:00,
2013-01-23 13:23:00,43.0,11.0,-100.00,North,352,2.0,5.0,27,0.00,,,0.00,487.000000,,2013-01-23 20:23:00,
2013-01-23 13:32:00,43.0,11.0,-100.00,North,352,2.0,5.0,27,0.00,,,0.00,487.000000,,2013-01-23 20:32:00,
2013-01-23 13:42:00,43.0,11.0,-100.00,North,352,2.0,5.0,27,0.00,,,0.00,487.000000,,2013-01-23 20:42:00,
2013-01-23 14:12:00,41.0,13.0,-100.00,NNW,346,3.0,5.0,31,0.00,,,0.00,400.000000,,2013-01-23 21:12:00,
2013-01-23 14:22:00,41.0,13.0,-100.00,NNW,346,3.0,5.0,31,0.00,,,0.00,400.000000,,2013-01-23 21:22:00,
2013-01-23 14:33:00,41.0,13.0,-100.00,NNW,346,3.0,5.0,31,0.00,,,0.00,400.000000,,2013-01-23 21:33:00,
2013-01-23 14:42:00,41.0,13.0,-100.00,NNW,346,3.0,5.0,31,0.00,,,0.00,400.000000,,2013-01-23 21:42:00,
2013-01-23 15:12:00,41.0,14.0,-100.00,North,351,3.0,5.0,33,0.00,,,-99.99,342.000000,,2013-01-23 22:12:00,
2013-01-23 15:22:00,41.0,14.0,-100.00,North,351,3.0,5.0,33,0.00,,,-99.99,342.000000,,2013-01-23 22:22:00,
2013-01-23 15:33:00,41.0,14.0,-100.00,North,351,3.0,5.0,33,0.00,,,-99.99,342.000000,,2013-01-23 22:33:00,
2013-01-23 15:42:00,41.0,14.0,-100.00,North,351,3.0,5.0,33,0.00,,,-99.99,342.000000,,2013-01-23 22:42:00,
2013-01-23 16:12:00,38.0,13.0,-100.00,NNW,336,1.0,5.0,36,0.00,,,0.00,233.000000,,2013-01-23 23:12:00,
2013-01-23 16:22:00,38.0,13.0,-100.00,NNW,336,1.0,5.0,36,0.00,,,0.00,233.000000,,2013-01-23 23:22:00,
2013-01-23 16:33:00,38.0,13.0,-100.00,NNW,336,1.0,5.0,36,0.00,,,0.00,233.000000,,2013-01-23 23:33:00,
2013-01-23 16:42:00,38.0,13.0,-100.00,NNW,336,1.0,5.0,36,0.00,,,0.00,233.000000,,2013-01-23 23:42:00,
2013-01-23 17:12:00,32.0,14.0,-100.00,SE,128,5.0,6.0,47,0.00,,,0.00,91.000000,,2013-01-24 00:12:00,
2013-01-23 17:22:00,32.0,14.0,-100.00,SE,128,5.0,6.0,47,0.00,,,0.00,91.000000,,2013-01-24 00:22:00,
2013-01-23 17:32:00,32.0,14.0,-100.00,SE,128,5.0,6.0,47,0.00,,,0.00,91.000000,,2013-01-24 00:32:00,
2013-01-23 17:42:00,32.0,14.0,-100.00,SE,128,5.0,6.0,47,0.00,,,0.00,91.000000,,2013-01-24 00:42:00,
2013-01-23 18:12:00,30.0,11.0,-100.00,WSW,247,1.0,6.0,45,0.00,,,0.00,14.000000,,2013-01-24 01:12:00,
2013-01-23 18:22:00,30.0,11.0,-100.00,WSW,247,1.0,6.0,45,0.00,,,0.00,14.000000,,2013-01-24 01:22:00,
2013-01-23 18:33:00,30.0,11.0,-100.00,WSW,247,1.0,6.0,45,0.00,,,0.00,14.000000,,2013-01-24 01:33:00,
2013-01-23 18:42:00,30.0,11.0,-100.00,WSW,247,1.0,6.0,45,0.00,,,0.00,14.000000,,2013-01-24 01:42:00,
2013-01-23 19:12:00,29.0,7.0,-100.00,SW,215,4.0,5.0,38,0.00,,,0.00,0.000000,,2013-01-24 02:12:00,
2013-01-23 19:22:00,29.0,7.0,-100.00,SW,215,4.0,5.0,38,0.00,,,0.00,0.000000,,2013-01-24 02:22:00,
2013-01-23 19:32:00,29.0,7.0,-100.00,SW,215,4.0,5.0,38,0.00,,,0.00,0.000000,,2013-01-24 02:32:00,
2013-01-23 19:42:00,29.0,7.0,-100.00,SW,215,4.0,5.0,38,0.00,,,0.00,0.000000,,2013-01-24 02:42:00,
2013-01-23 20:12:00,26.0,10.0,-100.00,South,176,4.0,8.0,50,0.00,,,0.00,0.000000,,2013-01-24 03:12:00,
2013-01-23 20:22:00,26.0,10.0,-100.00,South,176,4.0,8.0,50,0.00,,,0.00,0.000000,,2013-01-24 03:22:00,
2013-01-23 20:32:00,26.0,10.0,-100.00,South,176,4.0,8.0,50,0.00,,,0.00,0.000000,,2013-01-24 03:32:00,
2013-01-23 20:42:00,26.0,10.0,-100.00,South,176,4.0,8.0,50,0.00,,,0.00,0.000000,,2013-01-24 03:42:00,
2013-01-23 21:12:00,27.0,11.0,-100.00,ESE,121,5.0,8.0,51,0.00,,,0.00,0.000000,,2013-01-24 04:12:00,
2013-01-23 21:22:00,27.0,11.0,-100.00,ESE,121,5.0,8.0,51,0.00,,,0.00,0.000000,,2013-01-24 04:22:00,
2013-01-23 21:32:00,27.0,11.0,-100.00,ESE,121,5.0,8.0,51,0.00,,,0.00,0.000000,,2013-01-24 04:32:00,
2013-01-23 21:42:00,27.0,11.0,-100.00,ESE,121,5.0,8.0,51,0.00,,,0.00,0.000000,,2013-01-24 04:42:00,
2013-01-23 22:12:00,28.0,10.0,-100.00,SE,143,4.0,7.0,46,0.00,,,0.00,0.000000,,2013-01-24 05:12:00,
2013-01-23 22:22:00,28.0,10.0,-100.00,SE,143,4.0,7.0,46,0.00,,,0.00,0.000000,,2013-01-24 05:22:00,
2013-01-23 22:32:00,28.0,10.0,-100.00,SE,143,4.0,7.0,46,0.00,,,0.00,0.000000,,2013-01-24 05:32:00,
2013-01-23 22:42:00,28.0,10.0,-100.00,SE,143,4.0,7.0,46,0.00,,,0.00,0.000000,,2013-01-24 05:42:00,
2013-01-23 23:12:00,26.0,8.0,-100.00,SSE,167,6.0,8.0,45,0.00,,,0.00,0.000000,,2013-01-24 06:12:00,
2013-01-23 23:22:00,26.0,8.0,-100.00,SSE,167,6.0,8.0,45,0.00,,,0.00,0.000000,,2013-01-24 06:22:00,
2013-01-23 23:32:00,26.0,8.0,-100.00,SSE,167,6.0,8.0,45,0.00,,,0.00,0.000000,,2013-01-24 06:32:00,
2013-01-23 23:42:00,26.0,8.0,-100.00,SSE,167,6.0,8.0,45,0.00,,,0.00,0.000000,,2013-01-24 06:42:00,